Погода в Антоньевке

Россия / Алтайский край     51°59′46″N   83°58′19″E
темп.,
°C
ветер,
м/с
пор.,
м/с
влажн.,
%
обл.,
%
осадки,
мм/ч
давл.,
гПа
погр.,
м
15 апреля, чт
чт1501:00+3ююз477896 0.0 102983
04:00+2ююз477938 0.0 102881
07:00+2ююз3481100 0.0 102852
10:00+2ю22100100 0.0 102828
13:00+5юз12100100 0.0 102776
16:00+5ссз019791 0.0 102760
19:00+4ююв2295100 0.0 102617
22:00+2ю229112 0.0 102619
16 апреля, пт
пт1601:00+2ю339099 0.0 102532
04:00+3ю3386100 0.0 102335
07:00+3ю338585 0.0 102330
10:00+8ю23785 0.0 1022106
13:00+13з24580 0.0 1020693
16:00+14зюз46525 0.0 10191136
19:00+12юз34630 0.0 101765
22:00+9ю44702 0.0 101748
17 апреля, сб
сб1701:00+7ю447418 0.0 101644
04:00+7сз1278100 0.0 101625
07:00+6с2291100 0.0 101746
10:00+5св2295100 0.0 1017249
13:00+6ссв3291100 0.1 1016404
16:00+5с3487100 0.1 1016588
19:00+3ссз3391100 0.1 1018480
22:00+3з3791100 0.0 1021506
18 апреля, вс
вс1801:00+3зюз377398 0.1 1021259
04:00+2сз118237 0.0 102363
07:000в118288 0.0 102317
10:00+3всв2165100 0.0 1022543
13:00+7ссз135495 0.0 10201234
16:00+9зсз4843100 0.0 10161708
19:00+10з4852100 0.0 1014742
22:00+7ююв3365100 0.0 101030
19 апреля, пн
пн1901:00+10юз7155470 0.1 1007419
04:00+8зюз7166199 0.1 1007594
07:00+6з71279100 0.1 1008930
10:00+1з91775100 1.7 10131105
13:00+2з10134699 1.8 10171428
16:00+4з8113969 0.0 10181950
19:00+2зсз6842100 0.0 10191870
22:00−1сз366074 0.0 1021263